Showing default

NORSAT 1, 42826

Orbit data source: Space-Track

NORSAT 1, 42826 is a payload satellite owned by Statsat (NO) in SSO that was launched on Fri, 14 Jul 2017 UTC via a SOYUZ-2-1A launch vehicle from the Tyuratam Missile And Space Complex (TTMTR). Payload-class satellites include a variety of spacecraft equipped with specific instruments for various scientific and technological missions. These include communications satellites like Starlink; space stations such as the ISS; scientific satellites like the Hubble; Earth observation satellites from companies like Planet Labs, Umbra, and HawkEye 360; GPS; miniature CubeSats for education and research; and military/defense satellites.

Loading next visibility...
Identifier
42826, 2017-042B
Orbit
SSO
Country
Flag of NONO / NOR
Related business
Manufacturer
UTIAS-SFL
Mission
Operational Commercial Communications
Bus & Motor
GNB, Unknown motor
Mass
30 kg wet, 30 kg dry
Launch date (UTC)
2017-07-14 (9 years ago)
Launch vehicle
SOYUZ-2-1A
Launch site
Tyuratam Missile And Space Complex (TTMTR)
Object type
Payload
Rocket body
Debris
Shape & HBR
Box + 2 Pan + 4 Ant, 1.0 m
Radar Cross Section
0.202 m², Medium (>0.1 m² and < 1m²)

Expand to show TLE details & history
Last TLE update: 9 hours ago

TLE from 9 hours ago
0 NORSAT 1
1 42826U 17042B   26168.53721767  .00005441  00000-0  30227-3 0  9998
2 42826  97.4448 336.2447 0008468  84.8855 275.3343 15.14084988487287
Epoch: 2026-06-17T12:53Z
TLE epoch observation values (Epoch: 2026-06-17T12:53:35.606Z)
Latitude
-0.00005°
Longitude
-122.94713°
Altitude
526.301 km
Speed
7.6 km/s
True Right ascension
22h 24m 58s
True Declination
0° 00' 00"
Sunlit
Object was in daylight at epoch
Visualization orbit readout
Latitude
Unknown
Longitude
Unknown
Altitude
Unknown
Speed
Unknown
Apparent Right ascension
Unknown
Apparent Declination
Unknown
Sunlit
N/A
Visualization observer readout
Local Sidereal Time
08:33:32
Azimuth
Unknown
Elevation
Unknown
Doppler factor
Unknown
Orbital elements
Apogee altitude
526.575 km
Perigee altitude
514.891 km
Semi-major axis
6,898.87 km
Eccentricity
0.00085
Inclination
97.4448°
RAAN
336.2447°
Arg. of periapsis
84.8855°
True anomaly
275.23767°
Mean anomaly
275.3343°
Eccentric anomaly
275.28599°
Mean motion
3.78771 °/min
Orbital period
95.04 mins
BSTAR
0.00030227
Loading maneuver chart data...
Computing Atmospheric mass density...

Documentation

Showing up to 5 results
|